AirNav   Everest Fuels
 
 383 users online  

TX45 Hawkeye Hunting Club Airport
Center, Texas, USA

GOING TO CENTER?


FAA INFORMATION EFFECTIVE 16 JULY 2020

Location

FAA Identifier: TX45
Lat/Long: 31-46-00.5820N 097-07-46.0130W
31-46.009700N 097-07.766883W
31.7668283,-97.1294481
(estimated)
Elevation: 260 ft. / 79 m (estimated)
Variation: 07E (1985)
From city: 3 miles SE of CENTER, TX
Time zone: UTC -5 (UTC -6 during Standard Time)
Zip code: 75935

Airport Operations

Airport use: Private use. Permission required prior to landing
Activation date: 10/1959
Control tower: no
ARTCC: FORT WORTH CENTER
FSS: MONTGOMERY COUNTY FLIGHT SERVICE STATION
FOR FP FILING CALL CXO FSS 1-800-833-5602.
Attendance: UNATNDD
Wind indicator: no
Segmented circle: no

Airport Communications

WX AWOS-3 at CNW (8 nm S): 134.225 (254-867-3880)
WX ASOS at ACT (11 nm SW): PHONE 254-759-3065
WX AWOS-3 at INJ (19 nm N): 118.725 (254-582-0063)
WX AWOS-3PT at PWG (19 nm SW): 135.525 (254-848-4581)

Nearby radio navigation aids

VOR radial/distance  VOR name  Freq  Var
ACTr040/9.5WACO VORTAC115.3009E

 
NDB name  Hdg/Dist  Freq  Var  ID
ROBINSON346/16.140003EROB .-. --- -...
MEXIA280/32.432904ELXY .-.. -..- -.--

Airport Services

Airframe service: NONE
Powerplant service: NONE

Runway Information

Runway E/W

Dimensions: 3200 x 50 ft. / 975 x 15 m
Surface: turf
RUNWAY E  RUNWAY W
Traffic pattern: leftleft
Obstructions: treetree

Airport Ownership and Management from official FAA records

Ownership: Privately-owned
Owner: HAWKEYE HUNTING CLUB, INC.
PO BOX 27
CENTER, TX 75935
Phone 409-598-2424
Manager: JERRY WATERS
PO BOX 27
CENTER, TX 75935
Phone 409-598-2424

Additional Remarks

HAS DOGLEG AT WEST END.
FOR CD CTC FORT WORTH ARTCC AT 817-858-7584.

Instrument Procedures

There are no published instrument procedures at TX45.

Some nearby airports with instrument procedures:

F17 - Center Municipal Airport (4 nm N)
4F2 - Panola County Airport-Sharpe Field (26 nm N)
3F3 - C E 'Rusty' Williams Airport (26 nm NE)
KOCH - Nacogdoches A L Mangham Jr. Regional Airport (32 nm W)
3R4 - Hart Airport (35 nm E)
 
Loc | Ops | Rwys | IFR | FBO | Links
Com | Nav | Svcs | Stats | Notes
Area around TX45 (Hawkeye Hunting Club Airport)
 
Road maps at: MapQuest Bing Google
 
Aerial photo
No photo
 
Sectional chart

 
Airport distance calculator
Flying to Hawkeye Hunting Club Airport? Find the distance to fly.

From to TX45

Sunrise and sunset
Times for 12-Aug-2020
 Local
(UTC-5)
 Zulu
(UTC)
Morning civil twilight06:1511:15
Sunrise06:4111:41
Sunset20:0201:02
Evening civil twilight20:2701:27

Current date and time
Zulu (UTC)  12-Aug-2020 07:47:47
Local (UTC-5)  12-Aug-2020 02:47:47
 
METAR
TAF
KSHV 
44nm N 
120555Z 1206/1306 18007KT P6SM FEW070 TEMPO 1209/1212 BKN015 FM121200 20008KT P6SM BKN015 FM121400 VRB04KT P6SM VCTS BKN030CB BKN100 TEMPO 1214/1218 3SM TSRA BR BKN030CB FM122000 VRB06KT P6SM SCT050 SCT150 SCT250 FM130000 VRB04KT P6SM FEW250
KLFK 
45nm SW 
120555Z 1206/1306 17006KT P6SM SKC TEMPO 1211/1215 BKN015 FM121500 19005KT P6SM SCT025 BKN250 FM121800 22006KT P6SM SCT040 SCT140 BKN250
KGGG 
48nm NW 
120555Z 1206/1306 17008KT P6SM SKC TEMPO 1209/1212 BKN015 FM121200 VRB05KT P6SM VCTS BKN015CB TEMPO 1212/1216 3SM TSRA BR BKN030CB FM121600 VRB04KT P6SM VCTS SCT030CB BKN100 BKN250 FM122000 VRB06KT P6SM SCT050 SCT150 SCT250
KBAD 
50nm NE 
120210Z 1202/1308 14005KT 9999 SCT070 SCT250 QNH2988INS BECMG 1210/1211 19008KT 9999 VCSH BKN060 OVC200 QNH2992INS BECMG 1214/1215 23010KT 9999 -SHRA VCTS BKN025CB OVC100 QNH2992INS BECMG 1219/1220 20008KT 9999 NSW BKN035 BKN120 QNH2990INS BECMG 1301/1302 18005KT 9999 SCT050 QNH2989INS TX34/1221Z TN26/1212Z
NOTAMs
Click for the latest NOTAMs
NOTAMs are issued by the DoD/FAA and will open in a separate window not controlled by AirNav.

 

 
 

Would you like to see your business listed on this page?

 If your business provides an interesting product or service to pilots, flight crews, aircraft, or users of the Hawkeye Hunting Club Airport, you should consider listing it here.  To start the listing process, click on the button below
 
Add a business
 

Other Pages about Hawkeye Hunting Club Airport

Update a link
 
Copyright © AirNav, LLC. All rights reserved. Privacy Policy  Contact